Time,TemperatureF,DewpointF,PressureIn,WindDirection,WindDirectionDegrees,WindSpeedMPH,WindSpeedGustMPH,Humidity,HourlyPrecipIn,Conditions,Clouds,dailyrainin,SoftwareType,DateUTC
2013-04-08 00:03:00,58.6,42.9,29.83,ESE,121,0.0,0.0,56,0.00,,,0.00,Wunderground v.1.15,2013-04-08 05:03:00,
2013-04-08 00:13:00,58.9,45.0,29.83,SE,135,0.0,0.0,60,0.00,,,0.00,Wunderground v.1.15,2013-04-08 05:13:00,
2013-04-08 00:23:00,59.3,45.8,29.82,ESE,119,0.0,0.0,61,0.00,,,0.00,Wunderground v.1.15,2013-04-08 05:23:00,
2013-04-08 00:33:00,59.8,46.3,29.82,ESE,102,0.0,0.0,61,0.00,,,0.00,Wunderground v.1.15,2013-04-08 05:33:00,
2013-04-08 00:43:00,60.0,47.8,29.81,SE,132,0.0,0.0,64,0.00,,,0.00,Wunderground v.1.15,2013-04-08 05:43:00,
2013-04-08 00:53:00,60.4,49.0,29.80,SE,131,0.0,0.0,66,0.00,,,0.00,Wunderground v.1.15,2013-04-08 05:53:00,
2013-04-08 01:03:00,60.4,50.2,29.79,SE,137,0.0,0.0,69,0.00,,,0.00,Wunderground v.1.15,2013-04-08 06:03:00,
2013-04-08 01:13:00,60.6,51.1,29.78,SE,144,0.0,0.0,71,0.00,,,0.00,Wunderground v.1.15,2013-04-08 06:13:00,
2013-04-08 01:23:00,61.2,53.2,29.78,SE,143,0.0,0.0,75,0.00,,,0.00,Wunderground v.1.15,2013-04-08 06:23:00,
2013-04-08 01:33:00,61.5,53.9,29.78,SE,146,0.0,0.0,76,0.00,,,0.00,Wunderground v.1.15,2013-04-08 06:33:00,
2013-04-08 01:43:00,61.9,54.6,29.76,SSE,150,0.0,0.0,77,0.00,,,0.00,Wunderground v.1.15,2013-04-08 06:43:00,
2013-04-08 01:53:00,62.1,54.4,29.76,SSE,165,0.0,0.0,76,0.00,,,0.00,Wunderground v.1.15,2013-04-08 06:53:00,
2013-04-08 02:03:00,61.9,54.2,29.76,SSE,164,0.0,0.0,76,0.00,,,0.00,Wunderground v.1.15,2013-04-08 07:03:00,
2013-04-08 02:13:00,61.9,54.2,29.75,SE,144,0.0,0.0,76,0.00,,,0.00,Wunderground v.1.15,2013-04-08 07:13:00,
2013-04-08 02:23:00,61.9,54.6,29.75,SSE,150,0.0,0.0,77,0.00,,,0.00,Wunderground v.1.15,2013-04-08 07:23:00,
2013-04-08 02:33:00,61.8,54.5,29.74,SSE,163,0.0,0.0,77,0.00,,,0.00,Wunderground v.1.15,2013-04-08 07:33:00,
2013-04-08 02:43:00,61.5,54.9,29.75,SSE,166,0.0,0.0,79,0.00,,,0.00,Wunderground v.1.15,2013-04-08 07:43:00,
2013-04-08 02:53:00,61.6,55.4,29.74,SSE,157,0.0,0.0,80,0.00,,,0.00,Wunderground v.1.15,2013-04-08 07:53:00,
2013-04-08 03:03:00,61.8,55.6,29.74,SSE,165,0.0,0.0,80,0.00,,,0.00,Wunderground v.1.15,2013-04-08 08:03:00,
2013-04-08 03:13:00,61.9,55.7,29.74,SSE,166,0.0,0.0,80,0.00,,,0.00,Wunderground v.1.15,2013-04-08 08:13:00,
2013-04-08 03:23:00,61.8,55.9,29.73,SSE,167,0.0,0.0,81,0.00,,,0.00,Wunderground v.1.15,2013-04-08 08:23:00,
2013-04-08 03:33:00,61.6,55.7,29.72,South,171,0.0,0.0,81,0.00,,,0.00,Wunderground v.1.15,2013-04-08 08:33:00,
2013-04-08 03:43:00,61.5,55.6,29.71,South,171,0.0,0.0,81,0.00,,,0.00,Wunderground v.1.15,2013-04-08 08:43:00,
2013-04-08 03:53:00,61.5,55.6,29.71,SSE,163,0.0,0.0,81,0.00,,,0.00,Wunderground v.1.15,2013-04-08 08:53:00,
2013-04-08 04:03:00,61.3,55.1,29.70,SSE,165,0.0,0.0,80,0.00,,,0.00,Wunderground v.1.15,2013-04-08 09:03:00,
2013-04-08 04:13:00,61.3,55.1,29.70,SSE,166,0.0,0.0,80,0.00,,,0.00,Wunderground v.1.15,2013-04-08 09:13:00,
2013-04-08 04:23:00,61.5,55.3,29.70,South,174,0.0,0.0,80,0.00,,,0.00,Wunderground v.1.15,2013-04-08 09:23:00,
2013-04-08 04:33:00,61.5,55.3,29.70,SSE,159,0.0,0.0,80,0.00,,,0.00,Wunderground v.1.15,2013-04-08 09:33:00,
2013-04-08 04:43:00,61.5,55.3,29.69,South,169,0.0,0.0,80,0.00,,,0.00,Wunderground v.1.15,2013-04-08 09:43:00,
2013-04-08 04:53:00,61.5,55.3,29.70,SSW,207,0.0,0.0,80,0.00,,,0.00,Wunderground v.1.15,2013-04-08 09:53:00,
2013-04-08 05:03:00,61.5,55.6,29.69,SSW,192,0.0,0.0,81,0.00,,,0.01,Wunderground v.1.15,2013-04-08 10:03:00,
2013-04-08 05:13:00,60.7,55.8,29.67,South,185,0.0,0.0,84,0.08,,,0.03,Wunderground v.1.15,2013-04-08 10:13:00,
2013-04-08 05:23:00,60.4,56.2,29.64,South,188,0.0,0.0,86,0.00,,,0.03,Wunderground v.1.15,2013-04-08 10:23:00,
2013-04-08 05:33:00,60.1,56.2,29.65,South,184,0.0,0.0,87,0.09,,,0.05,Wunderground v.1.15,2013-04-08 10:33:00,
2013-04-08 05:43:00,60.0,56.1,29.65,SSE,168,0.0,0.0,87,0.04,,,0.05,Wunderground v.1.15,2013-04-08 10:43:00,
2013-04-08 05:53:00,59.8,55.6,29.66,South,182,0.0,0.0,86,0.00,,,0.05,Wunderground v.1.15,2013-04-08 10:53:00,
2013-04-08 06:03:00,59.3,55.1,29.67,South,190,0.0,0.0,86,0.00,,,0.05,Wunderground v.1.15,2013-04-08 11:03:00,
2013-04-08 06:13:00,59.3,55.1,29.67,SW,215,0.0,0.0,86,0.00,,,0.05,Wunderground v.1.15,2013-04-08 11:13:00,
2013-04-08 06:23:00,59.0,54.8,29.68,SSW,208,0.0,0.0,86,0.00,,,0.05,Wunderground v.1.15,2013-04-08 11:23:00,
2013-04-08 06:33:00,58.9,54.7,29.68,SSW,193,0.0,0.0,86,0.00,,,0.05,Wunderground v.1.15,2013-04-08 11:33:00,
2013-04-08 06:43:00,58.3,54.4,29.68,SSW,197,0.0,0.0,87,0.00,,,0.05,Wunderground v.1.15,2013-04-08 11:43:00,
2013-04-08 06:53:00,58.3,54.4,29.69,SSW,192,0.0,0.0,87,0.00,,,0.05,Wunderground v.1.15,2013-04-08 11:53:00,
2013-04-08 07:07:00,58.9,54.4,29.69,SSW,207,0.0,0.0,85,0.00,,,0.05,Wunderground v.1.15,2013-04-08 12:07:00,
2013-04-08 07:17:00,59.3,54.1,29.69,SSW,202,0.0,0.0,83,0.00,,,0.05,Wunderground v.1.15,2013-04-08 12:17:00,
2013-04-08 07:23:00,59.5,54.3,29.70,South,186,0.0,0.0,83,0.00,,,0.05,Wunderground v.1.15,2013-04-08 12:23:00,
2013-04-08 07:33:00,59.6,54.4,29.71,SSW,207,0.0,0.0,83,0.00,,,0.05,Wunderground v.1.15,2013-04-08 12:33:00,
2013-04-08 07:43:00,60.1,54.9,29.71,SSW,206,0.0,0.0,83,0.00,,,0.05,Wunderground v.1.15,2013-04-08 12:43:00,
2013-04-08 07:53:00,60.4,55.2,29.73,SW,221,0.0,0.0,83,0.00,,,0.05,Wunderground v.1.15,2013-04-08 12:53:00,
2013-04-08 08:03:00,60.4,55.2,29.72,SSW,200,0.0,0.0,83,0.00,,,0.05,Wunderground v.1.15,2013-04-08 13:03:00,
2013-04-08 08:13:00,60.7,55.5,29.73,SSW,212,0.0,0.0,83,0.00,,,0.05,Wunderground v.1.15,2013-04-08 13:13:00,
2013-04-08 08:23:00,61.2,55.7,29.75,WNW,284,0.0,0.0,82,0.00,,,0.05,Wunderground v.1.15,2013-04-08 13:23:00,
2013-04-08 08:33:00,60.3,54.8,29.75,WSW,238,0.0,0.0,82,0.00,,,0.06,Wunderground v.1.15,2013-04-08 13:33:00,
2013-04-08 08:43:00,59.6,54.4,29.76,WSW,239,0.0,0.0,83,0.00,,,0.06,Wunderground v.1.15,2013-04-08 13:43:00,
2013-04-08 08:53:00,59.2,54.4,29.76,WSW,239,0.0,0.0,84,0.00,,,0.07,Wunderground v.1.15,2013-04-08 13:53:00,
2013-04-08 09:03:00,59.0,54.8,29.76,WSW,239,0.0,0.0,86,0.00,,,0.07,Wunderground v.1.15,2013-04-08 14:03:00,
2013-04-08 09:13:00,59.2,54.7,29.77,WSW,239,0.0,0.0,85,0.00,,,0.07,Wunderground v.1.15,2013-04-08 14:13:00,
2013-04-08 09:23:00,59.5,55.0,29.77,WSW,239,0.0,0.0,85,0.00,,,0.07,Wunderground v.1.15,2013-04-08 14:23:00,
2013-04-08 09:33:00,59.8,55.3,29.77,WSW,239,0.0,0.0,85,0.00,,,0.07,Wunderground v.1.15,2013-04-08 14:33:00,
2013-04-08 09:43:00,60.3,55.4,29.78,WSW,239,0.0,0.0,84,0.00,,,0.07,Wunderground v.1.15,2013-04-08 14:43:00,
2013-04-08 09:53:00,60.7,55.8,29.78,WSW,239,0.0,0.0,84,0.00,,,0.07,Wunderground v.1.15,2013-04-08 14:53:00,
2013-04-08 10:03:00,61.3,56.1,29.78,WSW,239,0.0,0.0,83,0.00,,,0.07,Wunderground v.1.15,2013-04-08 15:03:00,
2013-04-08 10:13:00,62.1,56.9,29.79,WSW,239,0.0,0.0,83,0.00,,,0.07,Wunderground v.1.15,2013-04-08 15:13:00,
2013-04-08 10:23:00,63.2,57.6,29.79,WSW,239,0.0,0.0,82,0.00,,,0.07,Wunderground v.1.15,2013-04-08 15:23:00,
2013-04-08 10:33:00,64.6,57.6,29.79,WSW,239,0.0,0.0,78,0.00,,,0.07,Wunderground v.1.15,2013-04-08 15:33:00,
2013-04-08 10:43:00,65.4,58.0,29.79,WSW,239,0.0,0.0,77,0.00,,,0.07,Wunderground v.1.15,2013-04-08 15:43:00,
2013-04-08 10:53:00,66.5,58.7,29.79,WSW,239,0.0,0.0,76,0.00,,,0.07,Wunderground v.1.15,2013-04-08 15:53:00,
2013-04-08 11:03:00,67.8,58.1,29.79,WSW,239,0.0,0.0,71,0.00,,,0.07,Wunderground v.1.15,2013-04-08 16:03:00,
2013-04-08 11:13:00,69.3,58.3,29.79,WNW,287,0.0,0.0,68,0.00,,,0.07,Wunderground v.1.15,2013-04-08 16:13:00,
2013-04-08 11:23:00,69.8,57.5,29.78,SW,234,0.0,0.0,65,0.00,,,0.07,Wunderground v.1.15,2013-04-08 16:23:00,
2013-04-08 11:33:00,68.8,57.0,29.79,SW,234,0.0,0.0,66,0.00,,,0.07,Wunderground v.1.15,2013-04-08 16:33:00,
2013-04-08 11:43:00,68.9,57.1,29.79,NE,44,0.0,0.0,66,0.00,,,0.07,Wunderground v.1.15,2013-04-08 16:43:00,
2013-04-08 11:53:00,68.8,57.0,29.80,SW,235,0.0,0.0,66,0.00,,,0.07,Wunderground v.1.15,2013-04-08 16:53:00,
2013-04-08 12:03:00,69.3,56.6,29.80,WSW,239,0.0,0.0,64,0.00,,,0.07,Wunderground v.1.15,2013-04-08 17:03:00,
2013-04-08 12:13:00,69.1,56.0,29.80,WSW,238,0.0,0.0,63,0.00,,,0.07,Wunderground v.1.15,2013-04-08 17:13:00,
2013-04-08 12:23:00,69.3,57.0,29.80,WSW,238,0.0,0.0,65,0.00,,,0.07,Wunderground v.1.15,2013-04-08 17:23:00,
2013-04-08 12:33:00,70.1,58.2,29.80,SW,223,0.0,0.0,66,0.00,,,0.07,Wunderground v.1.15,2013-04-08 17:33:00,
2013-04-08 12:43:00,70.8,57.6,29.79,SW,233,0.0,0.0,63,0.00,,,0.07,Wunderground v.1.15,2013-04-08 17:43:00,
2013-04-08 12:53:00,72.1,57.4,29.79,SW,232,0.0,0.0,60,0.00,,,0.07,Wunderground v.1.15,2013-04-08 17:53:00,
2013-04-08 13:03:00,71.6,56.5,29.79,SW,230,0.0,0.0,59,0.00,,,0.07,Wunderground v.1.15,2013-04-08 18:03:00,
2013-04-08 13:13:00,71.4,57.7,29.79,SW,234,0.0,0.0,62,0.00,,,0.07,Wunderground v.1.15,2013-04-08 18:13:00,
2013-04-08 13:23:00,72.8,56.2,29.79,SW,232,0.0,0.0,56,0.00,,,0.07,Wunderground v.1.15,2013-04-08 18:23:00,
2013-04-08 13:33:00,73.5,56.3,29.78,West,281,0.0,0.0,55,0.00,,,0.07,Wunderground v.1.15,2013-04-08 18:33:00,
2013-04-08 13:43:00,74.5,55.7,29.79,WNW,290,0.0,0.0,52,0.00,,,0.07,Wunderground v.1.15,2013-04-08 18:43:00,
2013-04-08 13:53:00,74.5,55.2,29.78,SW,225,0.0,0.0,51,0.00,,,0.07,Wunderground v.1.15,2013-04-08 18:53:00,
2013-04-08 14:03:00,75.3,57.5,29.78,WNW,302,0.0,0.0,54,0.00,,,0.07,Wunderground v.1.15,2013-04-08 19:03:00,
2013-04-08 14:13:00,75.3,54.8,29.78,SW,224,0.0,0.0,49,0.00,,,0.07,Wunderground v.1.15,2013-04-08 19:13:00,
2013-04-08 14:23:00,75.9,53.6,29.78,SW,232,0.0,0.0,46,0.00,,,0.07,Wunderground v.1.15,2013-04-08 19:23:00,
2013-04-08 14:33:00,76.6,57.7,29.78,SW,232,0.0,0.0,52,0.00,,,0.07,Wunderground v.1.15,2013-04-08 19:33:00,
2013-04-08 14:43:00,75.5,53.9,29.78,SW,231,0.0,0.0,47,0.00,,,0.07,Wunderground v.1.15,2013-04-08 19:43:00,
2013-04-08 14:53:00,76.2,55.6,29.78,SW,234,0.0,0.0,49,0.00,,,0.07,Wunderground v.1.15,2013-04-08 19:53:00,
2013-04-08 15:03:00,75.7,55.2,29.78,SW,234,0.0,0.0,49,0.00,,,0.07,Wunderground v.1.15,2013-04-08 20:03:00,
2013-04-08 15:13:00,77.1,54.7,29.77,WSW,248,0.0,0.0,46,0.00,,,0.07,Wunderground v.1.15,2013-04-08 20:13:00,
2013-04-08 15:23:00,77.1,55.3,29.77,SW,214,0.0,0.0,47,0.00,,,0.07,Wunderground v.1.15,2013-04-08 20:23:00,
2013-04-08 15:33:00,77.3,53.1,29.77,West,263,0.0,0.0,43,0.00,,,0.07,Wunderground v.1.15,2013-04-08 20:33:00,
2013-04-08 15:43:00,77.6,55.8,29.77,WNW,283,0.0,0.0,47,0.00,,,0.07,Wunderground v.1.15,2013-04-08 20:43:00,
2013-04-08 15:53:00,78.1,53.8,29.78,SW,234,0.0,0.0,43,0.00,,,0.07,Wunderground v.1.15,2013-04-08 20:53:00,
2013-04-08 16:03:00,76.6,54.3,29.78,SW,230,0.0,0.0,46,0.00,,,0.07,Wunderground v.1.15,2013-04-08 21:03:00,
2013-04-08 16:13:00,76.6,54.9,29.78,SW,220,0.0,0.0,47,0.00,,,0.07,Wunderground v.1.15,2013-04-08 21:13:00,
2013-04-08 16:23:00,76.0,54.3,29.79,SW,220,0.0,0.0,47,0.00,,,0.07,Wunderground v.1.15,2013-04-08 21:23:00,
2013-04-08 16:33:00,75.0,55.6,29.79,SW,220,0.0,0.0,51,0.00,,,0.07,Wunderground v.1.15,2013-04-08 21:33:00,
2013-04-08 16:43:00,75.2,54.7,29.79,SW,220,0.0,0.0,49,0.00,,,0.07,Wunderground v.1.15,2013-04-08 21:43:00,
2013-04-08 16:53:00,76.7,55.5,29.80,South,188,0.0,0.0,48,0.00,,,0.07,Wunderground v.1.15,2013-04-08 21:53:00,
2013-04-08 17:03:00,76.4,55.8,29.80,SSW,213,0.0,0.0,49,0.00,,,0.07,Wunderground v.1.15,2013-04-08 22:03:00,
2013-04-08 17:17:00,75.9,55.9,29.80,South,182,0.0,0.0,50,0.00,,,0.07,Wunderground v.1.15,2013-04-08 22:17:00,
2013-04-08 17:23:00,75.7,54.6,29.81,SSW,194,0.0,0.0,48,0.00,,,0.07,Wunderground v.1.15,2013-04-08 22:23:00,
2013-04-08 17:33:00,74.7,55.4,29.80,SSW,194,0.0,0.0,51,0.00,,,0.07,Wunderground v.1.15,2013-04-08 22:33:00,
2013-04-08 17:43:00,74.5,56.2,29.80,SSW,194,0.0,0.0,53,0.00,,,0.07,Wunderground v.1.15,2013-04-08 22:43:00,
2013-04-08 17:53:00,74.1,55.9,29.81,South,186,0.0,0.0,53,0.00,,,0.07,Wunderground v.1.15,2013-04-08 22:53:00,
2013-04-08 18:03:00,73.6,56.4,29.81,South,186,0.0,0.0,55,0.00,,,0.07,Wunderground v.1.15,2013-04-08 23:03:00,
2013-04-08 18:13:00,73.6,56.4,29.81,South,186,0.0,0.0,55,0.00,,,0.07,Wunderground v.1.15,2013-04-08 23:13:00,
2013-04-08 18:23:00,73.3,56.2,29.82,South,186,0.0,0.0,55,0.00,,,0.07,Wunderground v.1.15,2013-04-08 23:23:00,
2013-04-08 18:33:00,72.8,56.2,29.81,South,186,0.0,0.0,56,0.00,,,0.07,Wunderground v.1.15,2013-04-08 23:33:00,
2013-04-08 18:43:00,72.4,56.3,29.81,South,186,0.0,0.0,57,0.00,,,0.07,Wunderground v.1.15,2013-04-08 23:43:00,
2013-04-08 18:53:00,72.1,57.0,29.82,South,186,0.0,0.0,59,0.00,,,0.07,Wunderground v.1.15,2013-04-08 23:53:00,
2013-04-08 19:03:00,71.8,56.7,29.82,South,186,0.0,0.0,59,0.00,,,0.07,Wunderground v.1.15,2013-04-09 00:03:00,
2013-04-08 19:13:00,71.1,56.5,29.82,South,186,0.0,0.0,60,0.00,,,0.07,Wunderground v.1.15,2013-04-09 00:13:00,
2013-04-08 19:23:00,70.6,56.0,29.82,South,186,0.0,0.0,60,0.00,,,0.07,Wunderground v.1.15,2013-04-09 00:23:00,
2013-04-08 19:33:00,69.9,56.3,29.83,South,186,0.0,0.0,62,0.00,,,0.07,Wunderground v.1.15,2013-04-09 00:33:00,
2013-04-08 19:43:00,69.3,57.0,29.83,South,186,0.0,0.0,65,0.00,,,0.07,Wunderground v.1.15,2013-04-09 00:43:00,
2013-04-08 19:53:00,69.3,57.5,29.84,South,186,0.0,0.0,66,0.00,,,0.07,Wunderground v.1.15,2013-04-09 00:53:00,
2013-04-08 20:03:00,68.8,57.4,29.84,South,186,0.0,0.0,67,0.00,,,0.07,Wunderground v.1.15,2013-04-09 01:03:00,
2013-04-08 20:13:00,68.3,58.1,29.84,South,186,0.0,0.0,70,0.00,,,0.07,Wunderground v.1.15,2013-04-09 01:13:00,
2013-04-08 20:23:00,68.1,58.3,29.84,South,186,0.0,0.0,71,0.00,,,0.07,Wunderground v.1.15,2013-04-09 01:23:00,
2013-04-08 20:37:00,67.5,58.2,29.85,South,186,0.0,0.0,72,0.00,,,0.07,Wunderground v.1.15,2013-04-09 01:37:00,
2013-04-08 20:43:00,67.3,58.3,29.85,South,186,0.0,0.0,73,0.00,,,0.07,Wunderground v.1.15,2013-04-09 01:43:00,
2013-04-08 20:53:00,67.0,58.1,29.86,South,186,0.0,0.0,73,0.00,,,0.07,Wunderground v.1.15,2013-04-09 01:53:00,
2013-04-08 21:03:00,66.7,57.8,29.86,South,186,0.0,0.0,73,0.00,,,0.07,Wunderground v.1.15,2013-04-09 02:03:00,
2013-04-08 21:13:00,66.0,57.8,29.86,South,186,0.0,0.0,75,0.00,,,0.07,Wunderground v.1.15,2013-04-09 02:13:00,
2013-04-08 21:23:00,65.5,57.7,29.86,South,186,0.0,0.0,76,0.00,,,0.07,Wunderground v.1.15,2013-04-09 02:23:00,
2013-04-08 21:33:00,65.2,57.4,29.88,South,186,0.0,0.0,76,0.00,,,0.07,Wunderground v.1.15,2013-04-09 02:33:00,
2013-04-08 21:43:00,64.6,56.9,29.88,South,186,0.0,0.0,76,0.00,,,0.07,Wunderground v.1.15,2013-04-09 02:43:00,
2013-04-08 21:53:00,63.6,55.9,29.88,South,186,0.0,0.0,76,0.00,,,0.07,Wunderground v.1.15,2013-04-09 02:53:00,
2013-04-08 22:03:00,62.9,56.3,29.88,South,186,0.0,0.0,79,0.00,,,0.07,Wunderground v.1.15,2013-04-09 03:03:00,
2013-04-08 22:13:00,62.5,55.5,29.88,South,186,0.0,0.0,78,0.00,,,0.07,Wunderground v.1.15,2013-04-09 03:13:00,
2013-04-08 22:23:00,61.6,55.4,29.88,South,186,0.0,0.0,80,0.00,,,0.07,Wunderground v.1.15,2013-04-09 03:23:00,
2013-04-08 22:33:00,61.0,54.8,29.88,South,186,0.0,0.0,80,0.00,,,0.07,Wunderground v.1.15,2013-04-09 03:33:00,
2013-04-08 22:43:00,61.2,56.0,29.88,South,186,0.0,0.0,83,0.00,,,0.07,Wunderground v.1.15,2013-04-09 03:43:00,
2013-04-08 22:53:00,61.5,56.3,29.88,South,186,0.0,0.0,83,0.00,,,0.07,Wunderground v.1.15,2013-04-09 03:53:00,
2013-04-08 23:03:00,61.8,56.9,29.88,South,186,0.0,0.0,84,0.00,,,0.07,Wunderground v.1.15,2013-04-09 04:03:00,
2013-04-08 23:07:00,62.5,57.6,29.88,South,186,0.0,0.0,84,0.00,,,0.07,Wunderground v.1.15,2013-04-09 04:07:00,
2013-04-08 23:13:00,63.2,57.9,29.88,South,186,0.0,0.0,83,0.00,,,0.07,Wunderground v.1.15,2013-04-09 04:13:00,
2013-04-08 23:23:00,63.8,57.9,29.87,SSE,148,0.0,0.0,81,0.00,,,0.07,Wunderground v.1.15,2013-04-09 04:23:00,
2013-04-08 23:33:00,63.6,57.0,29.88,SSE,147,0.0,0.0,79,0.00,,,0.07,Wunderground v.1.15,2013-04-09 04:33:00,
2013-04-08 23:43:00,63.2,56.9,29.87,SE,146,0.0,0.0,80,0.00,,,0.07,Wunderground v.1.15,2013-04-09 04:43:00,
2013-04-08 23:53:00,62.9,56.6,29.87,SE,134,0.0,0.0,80,0.00,,,0.07,Wunderground v.1.15,2013-04-09 04:53:00,